Погода в Шрусбери

Великобритания     52°42′25″N   2°44′45″W
темп.,
°C
ветер,
м/с
пор.,
м/с
влажн.,
%
обл.,
%
осадки,
мм/ч
давл.,
гПа
погр.,
м
9 мая, вс
вс901:00+12ю61493100 1.5 9941023
04:00+12ююз71389100 0.3 993794
07:00+10ююз51381100 0.3 993725
10:00+13ююз61269100 0.0 9931171
13:00+15ююз81262100 0.0 9931717
16:00+13ююз71272100 0.1 9931060
19:00+13ю6977100 0.1 992828
22:00+8ююв3792100 0.0 993133
10 мая, пн
пн1001:00+8ююв4992100 0.0 993265
04:00+9ююв61182100 0.0 993622
07:00+10ю61172100 0.0 993859
10:00+13ююз7117085 0.1 9941474
13:00+13ююз8126768 0.3 9951641
16:00+13ююз915716 0.4 9971702
19:00+11ююз915742 0.6 9991350
22:00+7ююз612800 0.0 1003666
11 мая, вт
вт1101:00+4ююв34937 0.0 100569
04:00+4ююв369436 0.0 100591
07:00+6ююв2491100 0.0 1006155
10:00+11ююв5773100 0.0 10061043
13:00+12юв5777100 0.8 1006940
16:00+12ююв5884100 1.0 1005886
19:00+10юв6118663 2.3 1004763
22:00+8юв499424 1.2 1004297
12 мая, ср
ср1201:00+5ююв37951 1.3 1005129
04:00+7ю249697 0.0 1005176
07:00+9ююв3895100 0.0 1006586
10:00+11ю678394 0.1 1007961
13:00+12ююз687582 0.6 10071251
16:00+12ююз697996 1.6 10081238
19:00+11зюз48835 1.8 1009947
22:00+7ю33925 0.0 101030
13 мая, чт
чт1301:00+5ююз229475 0.0 101127
04:00+5юз229598 0.0 101026
07:00+6ю119185 0.0 101180
10:00+11юв1176100 0.0 1011601
13:00+12вюв2275100 0.1 1011586
16:00+8ю3493100 1.8 1011307
19:00+8зсз2396100 3.8 1011158
22:00+7ссз2395100 0.3 101185